Cleveland, OH

11:45 AM EST on February 27, 2017 (GMT -0500)
Burke Lakefront

Weather History for KBKL - January, 2012

Change the Weather History Date:

Sunday, January 15, 2012

  Actual Average Record
Temperature  
Mean Temperature 24 °F -  
Max Temperature 28 °F 30 °F 55 °F (2007)
Min Temperature 21 °F 20 °F -2 °F (2009)
Degree Days  
Heating Degree Days 40    
Moisture  
Dew Point 14 °F    
Average Humidity 67    
Maximum Humidity 86    
Minimum Humidity 53    
Precipitation  
Precipitation 0.01 in - - ()
Sea Level Pressure  
Sea Level Pressure 30.40 in    
Wind  
Wind Speed 5 mph (SSE)    
Max Wind Speed 12 mph    
Max Gust Speed 21 mph    
Visibility 9 miles    
Events Snow    
Averages and records for this station are not official NWS values.
T = Trace of Precipitation, MM = Missing Value Source: NWS Daily Summary

Daily Weather History Graph

Daily Weather History Graph

Search for Another Location

Airport or City:

Trip Planner

Search our weather history database for the weather conditions in past years. The results will help you decide how hot, cold, wet, or windy it might be!

Date:

Astronomy

Jan. 15, 2012 Rise Set
Actual Time 7:51 AM EST 5:21 PM EST
Civil Twilight 7:20 AM EST 5:51 PM EST
Nautical Twilight 6:46 AM EST 6:26 PM EST
Astronomical Twilight 6:13 AM EST 6:59 PM EST
Moon No Moon Rise 11:02 AM EST (1/15)
Length of Visible Light 10h 31m
Length of Day
9h 30m
Waning Gibbous, 58% of the Moon is Illuminated
Jan 15
Waning Gibbous
Jan 16
Last Quarter
Jan 23
New
Jan 30
First Quarter
Feb 7
Full

Hourly Weather History & Observations

Time (EST) Temp. Windchill Dew Point Humidity Pressure Visibility Wind Dir Wind Speed Gust Speed Precip Events Conditions
12:53 AM 23.0 °F 18.4 °F 18.0 °F 81% 30.25 in 2.5 mi ESE 3.5 mph - 0.00 in Snow Light Snow
1:53 AM 23.0 °F 18.4 °F 18.0 °F 81% 30.27 in 2.0 mi SE 3.5 mph - 0.01 in Snow Light Snow
2:13 AM 21.2 °F 14.9 °F 17.6 °F 86% 30.25 in 4.0 mi SE 4.6 mph - 0.00 in Snow Light Snow
2:53 AM 23.0 °F 15.8 °F 16.0 °F 74% 30.29 in 10.0 mi ESE 5.8 mph - 0.00 in   Overcast
3:53 AM 23.0 °F 15.8 °F 14.0 °F 68% 30.30 in 10.0 mi East 5.8 mph - N/A   Overcast
4:53 AM 21.2 °F 14.9 °F 14.0 °F 74% 30.30 in 10.0 mi ESE 4.6 mph - N/A   Overcast
5:07 AM 21.2 °F 14.9 °F 12.2 °F 68% 30.30 in 10.0 mi ESE 4.6 mph - N/A   Overcast
5:53 AM 21.9 °F 17.2 °F 12.0 °F 66% 30.36 in 10.0 mi SE 3.5 mph - N/A   Overcast
6:06 AM 21.2 °F 16.4 °F 12.2 °F 68% 30.33 in 10.0 mi SE 3.5 mph - N/A   Overcast
6:13 AM 21.2 °F 16.4 °F 12.2 °F 68% 30.34 in 10.0 mi SE 3.5 mph - N/A   Overcast
6:53 AM 21.9 °F 17.2 °F 12.9 °F 68% 30.39 in 10.0 mi SSE 3.5 mph - N/A   Overcast
7:53 AM 21.9 °F 14.5 °F 14.0 °F 72% 30.42 in 10.0 mi SSE 5.8 mph - N/A   Overcast
8:53 AM 21.0 °F 12.4 °F 15.1 °F 78% 30.45 in 10.0 mi South 6.9 mph - N/A   Overcast
9:53 AM 21.9 °F 13.4 °F 16.0 °F 78% 30.47 in 3.0 mi SSE 6.9 mph - 0.00 in Snow Light Snow
10:53 AM 23.0 °F 13.1 °F 15.1 °F 72% 30.48 in 9.0 mi South 9.2 mph - 0.00 in   Partly Cloudy
11:53 AM 24.1 °F 17.0 °F 16.0 °F 71% 30.48 in 10.0 mi South 5.8 mph - N/A   Clear
12:53 PM 26.1 °F 18.4 °F 16.0 °F 66% 30.48 in 10.0 mi SSE 6.9 mph - N/A   Scattered Clouds
1:53 PM 26.1 °F 18.4 °F 14.0 °F 60% 30.46 in 10.0 mi South 6.9 mph - N/A   Mostly Cloudy
2:20 PM 28.4 °F 24.6 °F 15.8 °F 59% 30.43 in 10.0 mi Variable 3.5 mph - N/A   Overcast
2:44 PM 26.6 °F 22.6 °F 15.8 °F 64% 30.44 in 10.0 mi SSW 3.5 mph - N/A   Mostly Cloudy
2:53 PM 27.0 °F 21.6 °F 14.0 °F 58% 30.46 in 10.0 mi SSW 4.6 mph - N/A   Mostly Cloudy
3:53 PM 27.0 °F 18.7 °F 12.9 °F 56% 30.46 in 10.0 mi SSE 8.1 mph - N/A   Scattered Clouds
4:53 PM 28.0 °F 20.0 °F 12.9 °F 53% 30.46 in 10.0 mi ESE 8.1 mph - N/A   Mostly Cloudy
5:53 PM 27.0 °F 21.6 °F 12.9 °F 56% 30.48 in 10.0 mi SSE 4.6 mph - N/A   Clear
6:53 PM 25.0 °F 18.1 °F 12.9 °F 60% 30.47 in 10.0 mi South 5.8 mph - N/A   Clear
7:53 PM 26.1 °F 15.6 °F 14.0 °F 60% 30.47 in 10.0 mi SSE 11.5 mph - N/A   Clear
8:53 PM 25.0 °F 16.3 °F 14.0 °F 63% 30.48 in 10.0 mi SSE 8.1 mph - N/A   Clear
9:53 PM 25.0 °F 18.1 °F 14.0 °F 63% 30.45 in 10.0 mi SSE 5.8 mph - N/A   Clear
10:53 PM 24.1 °F 13.7 °F 14.0 °F 65% 30.42 in 10.0 mi SE 10.4 mph - N/A   Clear
11:53 PM 24.1 °F 13.1 °F 12.9 °F 62% 30.39 in 10.0 mi SSE 11.5 mph 20.7 mph N/A   Clear